Data No,UTC Date,UTC Time,Latitude,Longitude,Course(deg),Temp(degC),Sal(psu),Fluor Int,Blank
160,2004/11/16,16:01:00,  4-05.263N,104-00.120E,64.4,29.301,32.8709,182,162
161,2004/11/16,16:02:00,  4-05.348N,104-00.294E,64.7,29.306,32.8812,175,162
162,2004/11/16,16:03:00,  4-05.434N,104-00.468E,63.7,29.307,32.886,172,162
163,2004/11/16,16:04:00,  4-05.520N,104-00.644E,64.5,29.303,32.8933,---,162
164,2004/11/16,16:05:00,  4-05.611N,104-00.814E,65.3,29.294,32.8966,170,162
165,2004/11/16,16:06:00,  4-05.698N,104-00.986E,59.4,29.284,32.9009,---,162
166,2004/11/16,16:07:00,  4-05.802N,104-01.149E,59.3,29.285,32.8984,176,162
167,2004/11/16,16:08:00,  4-05.903N,104-01.314E,58.3,29.274,32.9037,175,162
168,2004/11/16,16:09:00,  4-06.004N,104-01.478E,59.8,29.272,32.906,175,162
169,2004/11/16,16:10:00,  4-06.106N,104-01.644E,54.2,29.272,32.9141,190,162
170,2004/11/16,16:11:00,  4-06.207N,104-01.812E,58.3,29.271,32.9157,173,162
171,2004/11/16,16:12:00,  4-06.310N,104-01.976E,54.8,29.26,32.9223,171,162
172,2004/11/16,16:13:00,  4-06.415N,104-02.142E,59.9,29.254,32.9262,167,162
173,2004/11/16,16:14:00,  4-06.515N,104-02.313E,58.1,29.248,32.9283,189,162
174,2004/11/16,16:15:00,  4-06.615N,104-02.482E,58.9,29.241,32.9306,177,162
175,2004/11/16,16:16:00,  4-06.714N,104-02.652E,59.9,29.236,32.9313,175,162
176,2004/11/16,16:17:00,  4-06.816N,104-02.819E,60,29.231,32.9335,189,162
177,2004/11/16,16:18:00,  4-06.920N,104-02.983E,57.8,29.227,32.9358,185,162
178,2004/11/16,16:19:00,  4-07.021N,104-03.151E,59.8,29.236,32.9352,183,162
179,2004/11/16,16:20:00,  4-07.123N,104-03.319E,58.8,29.242,32.9369,177,162
180,2004/11/16,16:21:00,  4-07.224N,104-03.487E,59.4,29.242,32.9425,175,162
181,2004/11/16,16:22:00,  4-07.324N,104-03.656E,59.4,29.238,32.95,168,162
182,2004/11/16,16:23:00,  4-07.424N,104-03.823E,59,29.24,32.9545,174,162
183,2004/11/16,16:24:00,  4-07.525N,104-03.992E,58.6,29.24,32.9569,178,162
184,2004/11/16,16:25:00,  4-07.626N,104-04.160E,60.6,29.236,32.9611,177,162
185,2004/11/16,16:26:00,  4-07.725N,104-04.329E,58.5,29.242,32.9629,178,162
186,2004/11/16,16:27:00,  4-07.826N,104-04.496E,60.7,29.237,32.9657,178,162
187,2004/11/16,16:28:00,  4-07.928N,104-04.663E,59.7,29.234,32.9678,175,162
188,2004/11/16,16:29:00,  4-08.030N,104-04.829E,58.8,29.248,32.9687,180,162
189,2004/11/16,16:30:00,  4-08.131N,104-04.999E,58.9,29.249,32.9723,179,162
190,2004/11/16,16:31:00,  4-08.233N,104-05.168E,60.4,29.251,32.9747,180,162
191,2004/11/16,16:32:00,  4-08.333N,104-05.338E,59.2,29.253,32.976,180,162
192,2004/11/16,16:33:00,  4-08.433N,104-05.508E,57.8,29.257,32.9772,179,162
193,2004/11/16,16:34:00,  4-08.534N,104-05.677E,59,29.255,32.978,176,162
194,2004/11/16,16:35:00,  4-08.636N,104-05.844E,57.8,29.245,32.9791,171,162
195,2004/11/16,16:36:00,  4-08.737N,104-06.015E,58.5,29.244,32.9788,177,162
196,2004/11/16,16:37:00,  4-08.837N,104-06.186E,58.4,29.24,32.9799,173,162
197,2004/11/16,16:38:00,  4-08.941N,104-06.354E,60.1,29.234,32.9804,176,162
198,2004/11/16,16:39:00,  4-09.043N,104-06.524E,58.6,29.233,32.9809,173,162
199,2004/11/16,16:40:00,  4-09.144N,104-06.695E,59,29.228,32.9822,177,162
200,2004/11/16,16:41:00,  4-09.248N,104-06.864E,60.7,29.223,32.9834,177,162
201,2004/11/16,16:42:00,  4-09.352N,104-07.035E,58.6,29.215,32.9841,176,162
202,2004/11/16,16:43:00,  4-09.455N,104-07.204E,58.5,29.217,32.9862,178,162
203,2004/11/16,16:44:00,  4-09.556N,104-07.376E,59.2,29.217,32.988,182,162
204,2004/11/16,16:45:00,  4-09.659N,104-07.546E,58,29.216,32.9902,178,162
205,2004/11/16,16:46:00,  4-09.761N,104-07.716E,58.8,29.209,32.9909,179,162
206,2004/11/16,16:47:00,  4-09.864N,104-07.886E,60.6,29.206,32.993,173,162
207,2004/11/16,16:48:00,  4-09.968N,104-08.056E,58.2,29.208,32.9956,177,162
208,2004/11/16,16:49:00,  4-10.071N,104-08.227E,59.4,29.213,32.9983,182,162
209,2004/11/16,16:50:00,  4-10.174N,104-08.398E,58.9,29.213,33.0018,178,162
210,2004/11/16,16:51:00,  4-10.276N,104-08.569E,65.1,29.212,33.0052,177,162
211,2004/11/16,16:52:00,  4-10.364N,104-08.748E,64.2,29.209,33.0082,---,162
212,2004/11/16,16:53:00,  4-10.453N,104-08.927E,63.7,29.208,33.0115,174,162
213,2004/11/16,16:54:00,  4-10.546N,104-09.104E,63.4,29.209,33.0148,189,162
214,2004/11/16,16:55:00,  4-10.636N,104-09.282E,61,29.206,33.0183,181,162
215,2004/11/16,16:56:00,  4-10.726N,104-09.462E,62.6,29.205,33.0205,184,162
216,2004/11/16,16:57:00,  4-10.817N,104-09.640E,64.4,29.202,33.024,179,162
217,2004/11/16,16:58:00,  4-10.908N,104-09.818E,64.1,29.199,33.0273,181,162
218,2004/11/16,16:59:00,  4-10.998N,104-09.995E,62.9,29.198,33.0301,171,162
219,2004/11/16,17:00:00,  4-11.085N,104-10.174E,63.4,29.195,33.0327,179,162
220,2004/11/16,17:01:00,  4-11.181N,104-10.346E,55.6,29.193,33.037,206,162
221,2004/11/16,17:02:00,  4-11.296N,104-10.501E,52.5,29.19,33.0401,173,162
222,2004/11/16,17:03:00,  4-11.427N,104-10.641E,46.4,29.188,33.0425,214,162
223,2004/11/16,17:04:00,  4-11.571N,104-10.766E,42.3,29.185,33.0437,166,162
224,2004/11/16,17:05:00,  4-11.712N,104-10.897E,42,29.181,33.0452,174,162
225,2004/11/16,17:06:00,  4-11.856N,104-11.028E,41.8,29.177,33.0473,175,162
227,2004/11/16,17:08:00,  4-12.119N,104-11.318E,55.8,29.173,33.0511,174,162
228,2004/11/16,17:09:00,  4-12.230N,104-11.485E,58.9,29.171,33.0538,171,162
229,2004/11/16,17:10:00,  4-12.334N,104-11.654E,59,29.165,33.0567,174,162
230,2004/11/16,17:11:00,  4-12.440N,104-11.823E,59.4,29.16,33.0587,175,162
231,2004/11/16,17:12:00,  4-12.546N,104-11.992E,59.3,29.158,33.0603,174,162
232,2004/11/16,17:13:00,  4-12.652N,104-12.159E,56.2,29.154,33.0608,175,162
233,2004/11/16,17:14:00,  4-12.759N,104-12.327E,56,29.146,33.0617,170,162
234,2004/11/16,17:15:00,  4-12.866N,104-12.493E,54.9,29.139,33.0614,174,162
235,2004/11/16,17:16:00,  4-12.958N,104-12.669E,62.1,29.133,33.0634,169,162
236,2004/11/16,17:17:00,  4-13.049N,104-12.846E,64.2,29.131,33.0677,173,162
237,2004/11/16,17:18:00,  4-13.138N,104-13.025E,64.5,29.134,33.0713,168,162
238,2004/11/16,17:19:00,  4-13.233N,104-13.203E,62.9,29.134,33.0763,172,162
239,2004/11/16,17:20:00,  4-13.325N,104-13.382E,62.3,29.138,33.0812,166,162
240,2004/11/16,17:21:00,  4-13.416N,104-13.561E,64.2,29.138,33.0866,175,162
241,2004/11/16,17:22:00,  4-13.507N,104-13.739E,63,29.14,33.0912,164,162
242,2004/11/16,17:23:00,  4-13.610N,104-13.910E,61.1,29.138,33.094,171,162
243,2004/11/16,17:24:00,  4-13.701N,104-14.088E,61.2,29.14,33.097,177,162
244,2004/11/16,17:25:00,  4-13.794N,104-14.265E,61.7,29.143,33.0986,175,162
245,2004/11/16,17:26:00,  4-13.889N,104-14.443E,62.7,29.15,33.0994,170,162
246,2004/11/16,17:27:00,  4-13.983N,104-14.621E,62.3,29.147,33.1005,175,162
247,2004/11/16,17:28:00,  4-14.078N,104-14.799E,62.2,29.141,33.1013,170,162
248,2004/11/16,17:29:00,  4-14.174N,104-14.977E,62,29.142,33.1026,173,162
249,2004/11/16,17:30:00,  4-14.269N,104-15.155E,62.7,29.148,33.104,173,162
250,2004/11/16,17:31:00,  4-14.362N,104-15.331E,61.6,29.14,33.1056,171,162
251,2004/11/16,17:32:00,  4-14.457N,104-15.508E,60.6,29.143,33.106,172,162
252,2004/11/16,17:33:00,  4-14.551N,104-15.685E,59.7,29.142,33.109,175,162
253,2004/11/16,17:34:00,  4-14.646N,104-15.861E,61.7,29.136,33.1106,166,162
254,2004/11/16,17:35:00,  4-14.740N,104-16.038E,61.5,29.14,33.1127,174,162
255,2004/11/16,17:36:00,  4-14.836N,104-16.214E,62.7,29.132,33.1149,175,162
256,2004/11/16,17:37:00,  4-14.931N,104-16.389E,62.1,29.129,33.1171,178,162
257,2004/11/16,17:38:00,  4-15.027N,104-16.566E,61.7,29.128,33.1176,176,162
258,2004/11/16,17:39:00,  4-15.122N,104-16.742E,62.2,29.131,33.119,167,162
259,2004/11/16,17:40:00,  4-15.216N,104-16.918E,61.3,29.133,33.1205,189,162
260,2004/11/16,17:41:00,  4-15.311N,104-17.096E,60.8,29.132,33.1227,---,162
261,2004/11/16,17:42:00,  4-15.407N,104-17.271E,60.2,29.133,33.1249,183,162
262,2004/11/16,17:43:00,  4-15.501N,104-17.448E,61.4,29.136,33.1254,---,162
263,2004/11/16,17:44:00,  4-15.596N,104-17.622E,62.8,29.136,33.1281,197,162
264,2004/11/16,17:45:00,  4-15.693N,104-17.797E,62.9,29.133,33.1302,189,162
265,2004/11/16,17:46:00,  4-15.787N,104-17.975E,61.7,29.136,33.1328,195,162
266,2004/11/16,17:47:00,  4-15.883N,104-18.152E,61.9,29.138,33.1357,176,162
267,2004/11/16,17:48:00,  4-15.979N,104-18.328E,61.6,29.137,33.1372,190,162
268,2004/11/16,17:49:00,  4-16.076N,104-18.506E,60.4,29.14,33.1399,162,162
269,2004/11/16,17:50:00,  4-16.171N,104-18.683E,61.1,29.136,33.1444,166,162
270,2004/11/16,17:51:00,  4-16.267N,104-18.861E,61.8,29.149,33.1474,166,162
271,2004/11/16,17:52:00,  4-16.365N,104-19.038E,60.4,29.149,33.1507,203,162
272,2004/11/16,17:53:00,  4-16.462N,104-19.215E,59.9,29.144,33.1554,---,162
273,2004/11/16,17:54:00,  4-16.558N,104-19.394E,61.6,29.16,33.1573,168,162
274,2004/11/16,17:55:00,  4-16.654N,104-19.571E,61.9,29.159,33.1628,190,162
275,2004/11/16,17:56:00,  4-16.751N,104-19.748E,61.8,29.156,33.166,---,162
276,2004/11/16,17:57:00,  4-16.848N,104-19.925E,60.3,29.151,33.1673,166,162
277,2004/11/16,17:58:00,  4-16.943N,104-20.102E,60.9,29.155,33.1685,---,162
278,2004/11/16,17:59:00,  4-17.039N,104-20.277E,60.9,29.148,33.1711,---,162
279,2004/11/16,18:00:00,  4-17.136N,104-20.452E,63.3,29.152,33.1724,197,162
280,2004/11/16,18:01:00,  4-17.232N,104-20.628E,60.4,29.151,33.173,208,162
281,2004/11/16,18:02:00,  4-17.328N,104-20.804E,60.7,29.15,33.1759,170,162
282,2004/11/16,18:03:00,  4-17.424N,104-20.979E,59.9,29.151,33.1772,---,162
283,2004/11/16,18:04:00,  4-17.520N,104-21.154E,60.1,29.149,33.1779,---,162
284,2004/11/16,18:05:00,  4-17.616N,104-21.332E,62.9,29.152,33.1788,---,162
285,2004/11/16,18:06:00,  4-17.714N,104-21.506E,60.6,29.149,33.1798,168,162
286,2004/11/16,18:07:00,  4-17.811N,104-21.682E,60.6,29.145,33.1795,169,162
287,2004/11/16,18:08:00,  4-17.908N,104-21.862E,59.8,29.14,33.1798,170,162
288,2004/11/16,18:09:00,  4-18.005N,104-22.041E,65.1,29.138,33.1793,167,162
289,2004/11/16,18:10:00,  4-18.104N,104-22.217E,61.2,29.132,33.1811,167,162
290,2004/11/16,18:11:00,  4-18.200N,104-22.393E,61.5,29.131,33.1816,164,162
291,2004/11/16,18:12:00,  4-18.299N,104-22.571E,61,29.132,33.1822,172,162
292,2004/11/16,18:13:00,  4-18.397N,104-22.747E,60.7,29.139,33.1831,170,162
293,2004/11/16,18:14:00,  4-18.495N,104-22.925E,59,29.138,33.1847,170,162
294,2004/11/16,18:15:00,  4-18.592N,104-23.103E,60.8,29.132,33.1852,171,162
295,2004/11/16,18:16:00,  4-18.690N,104-23.281E,59.6,29.133,33.1872,180,162
296,2004/11/16,18:17:00,  4-18.788N,104-23.457E,61.7,29.138,33.1874,169,162
297,2004/11/16,18:18:00,  4-18.885N,104-23.633E,61.7,29.139,33.1888,---,162
298,2004/11/16,18:19:00,  4-18.983N,104-23.810E,62.7,29.137,33.1897,---,162
299,2004/11/16,18:20:00,  4-19.082N,104-23.986E,62.7,29.135,33.1902,176,162
300,2004/11/16,18:21:00,  4-19.180N,104-24.163E,60.7,29.134,33.1902,173,162
301,2004/11/16,18:22:00,  4-19.277N,104-24.339E,61.3,29.137,33.1902,166,162
302,2004/11/16,18:23:00,  4-19.374N,104-24.517E,60.7,29.138,33.1913,184,162
303,2004/11/16,18:24:00,  4-19.471N,104-24.694E,62.8,29.139,33.1912,173,162
304,2004/11/16,18:25:00,  4-19.569N,104-24.869E,62.2,29.137,33.192,---,162
305,2004/11/16,18:26:00,  4-19.666N,104-25.044E,62.3,29.137,33.1915,---,162
306,2004/11/16,18:27:00,  4-19.763N,104-25.221E,59.7,29.138,33.1918,180,162
307,2004/11/16,18:28:00,  4-19.860N,104-25.397E,62.8,29.138,33.1914,196,162
308,2004/11/16,18:29:00,  4-19.958N,104-25.574E,61.1,29.137,33.192,216,162
309,2004/11/16,18:30:00,  4-20.056N,104-25.749E,61,29.144,33.1921,---,162
311,2004/11/16,18:32:00,  4-20.252N,104-26.100E,62.3,29.142,33.1947,165,162
312,2004/11/16,18:33:00,  4-20.350N,104-26.276E,61,29.141,33.1949,179,162
313,2004/11/16,18:34:00,  4-20.447N,104-26.453E,60.6,29.14,33.1956,175,162
314,2004/11/16,18:35:00,  4-20.542N,104-26.630E,61.5,29.141,33.1974,203,162
315,2004/11/16,18:36:00,  4-20.640N,104-26.806E,61.9,29.14,33.1988,180,162
316,2004/11/16,18:37:00,  4-20.737N,104-26.982E,61.8,29.142,33.1993,170,162
317,2004/11/16,18:38:00,  4-20.835N,104-27.155E,62.5,29.149,33.1999,174,162
318,2004/11/16,18:39:00,  4-20.933N,104-27.328E,60.4,29.148,33.2011,177,162
319,2004/11/16,18:40:00,  4-21.030N,104-27.501E,58.9,29.146,33.2011,---,162
320,2004/11/16,18:41:00,  4-21.125N,104-27.676E,60.1,29.156,33.2018,---,162
321,2004/11/16,18:42:00,  4-21.222N,104-27.851E,63.1,29.158,33.2016,170,162
322,2004/11/16,18:43:00,  4-21.321N,104-28.024E,64.8,29.163,33.2019,169,162
323,2004/11/16,18:44:00,  4-21.418N,104-28.199E,61.6,29.169,33.2029,171,162
324,2004/11/16,18:45:00,  4-21.514N,104-28.374E,61.3,29.17,33.2029,170,162
325,2004/11/16,18:46:00,  4-21.611N,104-28.547E,59.5,29.171,33.2042,175,162
326,2004/11/16,18:47:00,  4-21.709N,104-28.721E,59.9,29.177,33.2049,175,162
327,2004/11/16,18:48:00,  4-21.807N,104-28.896E,63.2,29.178,33.2052,170,162
328,2004/11/16,18:49:00,  4-21.907N,104-29.070E,60.5,29.181,33.2068,171,162
329,2004/11/16,18:50:00,  4-22.004N,104-29.245E,58,29.183,33.2074,169,162
330,2004/11/16,18:51:00,  4-22.103N,104-29.419E,59,29.187,33.2079,169,162
331,2004/11/16,18:52:00,  4-22.201N,104-29.592E,60.8,29.19,33.209,167,162
332,2004/11/16,18:53:00,  4-22.299N,104-29.766E,60.8,29.189,33.2102,---,162
333,2004/11/16,18:54:00,  4-22.397N,104-29.940E,60.7,29.19,33.211,165,162
334,2004/11/16,18:55:00,  4-22.496N,104-30.114E,61.9,29.193,33.2109,170,162
335,2004/11/16,18:56:00,  4-22.596N,104-30.287E,60.7,29.197,33.2121,171,162
336,2004/11/16,18:57:00,  4-22.695N,104-30.461E,60.6,29.192,33.2118,166,162
337,2004/11/16,18:58:00,  4-22.793N,104-30.637E,59.5,29.193,33.2131,171,162
338,2004/11/16,18:59:00,  4-22.893N,104-30.812E,61.5,29.193,33.2131,165,162
339,2004/11/16,19:00:00,  4-22.994N,104-30.986E,62.1,29.2,33.2135,168,162
340,2004/11/16,19:01:00,  4-23.070N,104-31.172E,66.2,29.205,33.2136,170,162
341,2004/11/16,19:02:00,  4-23.149N,104-31.356E,66,29.208,33.2142,166,162
342,2004/11/16,19:03:00,  4-23.228N,104-31.541E,67.7,29.212,33.2145,164,162
343,2004/11/16,19:04:00,  4-23.308N,104-31.725E,67.5,29.216,33.2146,171,162
344,2004/11/16,19:05:00,  4-23.386N,104-31.909E,67.8,29.218,33.2149,169,162
345,2004/11/16,19:06:00,  4-23.465N,104-32.093E,67.8,29.227,33.2162,169,162
346,2004/11/16,19:07:00,  4-23.542N,104-32.277E,66.6,29.231,33.2166,169,162
347,2004/11/16,19:08:00,  4-23.622N,104-32.462E,66.7,29.234,33.2172,168,162
348,2004/11/16,19:09:00,  4-23.702N,104-32.647E,65.6,29.236,33.2171,169,162
349,2004/11/16,19:10:00,  4-23.781N,104-32.831E,66,29.236,33.2168,163,162
350,2004/11/16,19:11:00,  4-23.861N,104-33.015E,65.5,29.24,33.2173,167,162
351,2004/11/16,19:12:00,  4-23.939N,104-33.200E,67.1,29.24,33.2174,167,162
352,2004/11/16,19:13:00,  4-24.019N,104-33.385E,67.2,29.242,33.2165,166,162
353,2004/11/16,19:14:00,  4-24.097N,104-33.567E,66,29.244,33.2166,164,162
354,2004/11/16,19:15:00,  4-24.177N,104-33.753E,65.7,29.245,33.2158,166,162
355,2004/11/16,19:16:00,  4-24.256N,104-33.937E,65.7,29.243,33.2156,167,162
356,2004/11/16,19:17:00,  4-24.335N,104-34.121E,65.7,29.242,33.2155,166,162
357,2004/11/16,19:18:00,  4-24.416N,104-34.305E,67.4,29.24,33.2152,---,162
358,2004/11/16,19:19:00,  4-24.494N,104-34.489E,66.5,29.243,33.2157,198,162
359,2004/11/16,19:20:00,  4-24.575N,104-34.673E,66.7,29.242,33.2153,162,162
360,2004/11/16,19:21:00,  4-24.654N,104-34.857E,65.3,29.242,33.2152,---,162
361,2004/11/16,19:22:00,  4-24.734N,104-35.041E,67.2,29.242,33.2153,167,162
362,2004/11/16,19:23:00,  4-24.814N,104-35.226E,66,29.241,33.2157,---,162
363,2004/11/16,19:24:00,  4-24.893N,104-35.410E,67.5,29.241,33.2152,207,162
364,2004/11/16,19:25:00,  4-24.972N,104-35.593E,66,29.242,33.2151,170,162
365,2004/11/16,19:26:00,  4-25.051N,104-35.776E,68.3,29.24,33.2157,170,162
366,2004/11/16,19:27:00,  4-25.132N,104-35.960E,68.1,29.238,33.2161,---,162
367,2004/11/16,19:28:00,  4-25.209N,104-36.145E,67.3,29.237,33.216,179,162
368,2004/11/16,19:29:00,  4-25.288N,104-36.330E,65,29.237,33.2163,173,162
369,2004/11/16,19:30:00,  4-25.369N,104-36.512E,66.6,29.231,33.2162,169,162
370,2004/11/16,19:31:00,  4-25.448N,104-36.697E,65.9,29.229,33.2159,164,162
371,2004/11/16,19:32:00,  4-25.529N,104-36.882E,66.3,29.229,33.216,165,162
372,2004/11/16,19:33:00,  4-25.609N,104-37.069E,66.6,29.228,33.2155,164,162
373,2004/11/16,19:34:00,  4-25.690N,104-37.253E,67.2,29.225,33.2159,162,162
374,2004/11/16,19:35:00,  4-25.771N,104-37.437E,65.7,29.222,33.2153,167,162
375,2004/11/16,19:36:00,  4-25.851N,104-37.622E,65.9,29.221,33.2157,175,162
376,2004/11/16,19:37:00,  4-25.932N,104-37.808E,66.3,29.223,33.2156,187,162
377,2004/11/16,19:38:00,  4-26.012N,104-37.993E,65.3,29.221,33.2162,---,162
378,2004/11/16,19:39:00,  4-26.092N,104-38.178E,65.3,29.218,33.2157,172,162
379,2004/11/16,19:40:00,  4-26.172N,104-38.364E,68.2,29.216,33.2158,169,162
380,2004/11/16,19:41:00,  4-26.253N,104-38.549E,66.7,29.216,33.2161,---,162
381,2004/11/16,19:42:00,  4-26.333N,104-38.735E,66.1,29.213,33.2169,171,162
382,2004/11/16,19:43:00,  4-26.413N,104-38.921E,66.2,29.216,33.217,166,162
383,2004/11/16,19:44:00,  4-26.493N,104-39.107E,65.9,29.212,33.2162,176,162
384,2004/11/16,19:45:00,  4-26.572N,104-39.291E,64.8,29.211,33.2159,166,162
385,2004/11/16,19:46:00,  4-26.653N,104-39.476E,67.8,29.212,33.2173,174,162
386,2004/11/16,19:47:00,  4-26.734N,104-39.661E,65.3,29.212,33.2168,165,162
387,2004/11/16,19:48:00,  4-26.815N,104-39.848E,66.4,29.214,33.2176,168,162
388,2004/11/16,19:49:00,  4-26.896N,104-40.034E,65.3,29.217,33.2181,169,162
389,2004/11/16,19:50:00,  4-26.977N,104-40.219E,67,29.219,33.2182,173,162
390,2004/11/16,19:51:00,  4-27.058N,104-40.405E,65.5,29.221,33.2183,174,162
391,2004/11/16,19:52:00,  4-27.138N,104-40.592E,67.5,29.224,33.219,168,162
392,2004/11/16,19:53:00,  4-27.220N,104-40.779E,66.6,29.227,33.2188,168,162
393,2004/11/16,19:54:00,  4-27.302N,104-40.966E,67.1,29.228,33.2192,170,162
394,2004/11/16,19:55:00,  4-27.384N,104-41.152E,69.1,29.23,33.2197,177,162
395,2004/11/16,19:56:01,  4-27.466N,104-41.338E,66.9,29.233,33.2204,163,162
396,2004/11/16,19:57:00,  4-27.547N,104-41.524E,65.9,29.232,33.2199,170,162
397,2004/11/16,19:58:00,  4-27.628N,104-41.710E,66,29.233,33.2198,168,162
398,2004/11/16,19:59:00,  4-27.708N,104-41.896E,66.5,29.236,33.2205,165,162
399,2004/11/16,20:00:00,  4-27.789N,104-42.083E,65.8,29.239,33.2212,---,162
400,2004/11/16,20:01:00,  4-27.870N,104-42.270E,65.9,29.238,33.2194,171,162
401,2004/11/16,20:02:00,  4-27.953N,104-42.456E,65.4,29.238,33.2206,166,162
402,2004/11/16,20:03:00,  4-28.034N,104-42.642E,67.2,29.24,33.2206,167,162
403,2004/11/16,20:04:00,  4-28.115N,104-42.827E,66.4,29.244,33.2206,169,162
404,2004/11/16,20:05:00,  4-28.196N,104-43.014E,65.1,29.244,33.2204,167,162
405,2004/11/16,20:06:00,  4-28.277N,104-43.199E,65.6,29.25,33.2208,168,162
406,2004/11/16,20:07:00,  4-28.359N,104-43.386E,64.8,29.257,33.221,168,162
407,2004/11/16,20:08:00,  4-28.439N,104-43.573E,66,29.264,33.2214,176,162
408,2004/11/16,20:09:00,  4-28.520N,104-43.758E,66.6,29.269,33.2209,---,162
409,2004/11/16,20:10:00,  4-28.603N,104-43.944E,68.1,29.269,33.221,---,162
410,2004/11/16,20:11:00,  4-28.684N,104-44.129E,67.6,29.27,33.2211,165,162
411,2004/11/16,20:12:00,  4-28.765N,104-44.314E,66.8,29.269,33.2207,165,162
412,2004/11/16,20:13:00,  4-28.846N,104-44.501E,66.3,29.27,33.2207,170,162
413,2004/11/16,20:14:01,  4-28.927N,104-44.685E,65.2,29.269,33.2206,---,162
414,2004/11/16,20:15:00,  4-29.006N,104-44.872E,64.3,29.267,33.22,174,162
415,2004/11/16,20:16:00,  4-29.087N,104-45.056E,64.4,29.262,33.2195,171,162
416,2004/11/16,20:17:00,  4-29.165N,104-45.242E,67.7,29.257,33.2192,168,162
417,2004/11/16,20:18:00,  4-29.245N,104-45.427E,68,29.255,33.2194,183,162
418,2004/11/16,20:19:00,  4-29.326N,104-45.610E,66.9,29.255,33.2186,---,162
419,2004/11/16,20:20:00,  4-29.406N,104-45.795E,65.7,29.253,33.2183,168,162
420,2004/11/16,20:21:01,  4-29.486N,104-45.979E,65.8,29.25,33.2187,164,162
421,2004/11/16,20:22:00,  4-29.566N,104-46.164E,67.5,29.245,33.2181,167,162
422,2004/11/16,20:23:00,  4-29.648N,104-46.349E,66.5,29.247,33.2184,171,162
423,2004/11/16,20:24:00,  4-29.727N,104-46.535E,66.7,29.247,33.2181,170,162
424,2004/11/16,20:25:00,  4-29.808N,104-46.720E,66.9,29.247,33.218,169,162
425,2004/11/16,20:26:00,  4-29.888N,104-46.905E,66.2,29.245,33.2172,168,162
426,2004/11/16,20:27:00,  4-29.968N,104-47.089E,65.8,29.247,33.2168,162,162
427,2004/11/16,20:28:00,  4-30.048N,104-47.274E,65.2,29.25,33.2167,179,162
428,2004/11/16,20:29:00,  4-30.130N,104-47.458E,67,29.254,33.2171,175,162
429,2004/11/16,20:30:00,  4-30.209N,104-47.645E,65.4,29.255,33.2158,167,162
430,2004/11/16,20:31:00,  4-30.290N,104-47.833E,67.4,29.255,33.2165,163,162
431,2004/11/16,20:32:00,  4-30.371N,104-48.019E,66.7,29.256,33.2165,181,162
432,2004/11/16,20:33:00,  4-30.452N,104-48.203E,66.2,29.25,33.2174,182,162
433,2004/11/16,20:34:00,  4-30.533N,104-48.387E,68.1,29.245,33.217,168,162
434,2004/11/16,20:35:00,  4-30.614N,104-48.574E,68.7,29.24,33.2171,169,162
435,2004/11/16,20:36:00,  4-30.694N,104-48.759E,67,29.239,33.2174,167,162
436,2004/11/16,20:37:00,  4-30.775N,104-48.944E,66.4,29.237,33.2174,172,162
437,2004/11/16,20:38:00,  4-30.856N,104-49.130E,67.4,29.233,33.2173,164,162
438,2004/11/16,20:39:00,  4-30.937N,104-49.318E,65.4,29.231,33.2174,165,162
439,2004/11/16,20:40:00,  4-31.019N,104-49.506E,66.8,29.232,33.218,169,162
440,2004/11/16,20:41:00,  4-31.098N,104-49.693E,65.9,29.237,33.2178,162,162
441,2004/11/16,20:42:00,  4-31.178N,104-49.880E,67.2,29.242,33.2179,167,162
442,2004/11/16,20:43:00,  4-31.260N,104-50.067E,65.5,29.25,33.2182,167,162
443,2004/11/16,20:44:00,  4-31.341N,104-50.255E,67.3,29.238,33.2186,166,162
444,2004/11/16,20:45:00,  4-31.422N,104-50.441E,67.5,29.236,33.2188,168,162
445,2004/11/16,20:46:00,  4-31.500N,104-50.627E,66.8,29.238,33.2189,167,162
446,2004/11/16,20:47:01,  4-31.580N,104-50.813E,65.8,29.24,33.2206,166,162
447,2004/11/16,20:48:00,  4-31.658N,104-50.998E,68.6,29.24,33.2213,164,162
448,2004/11/16,20:49:00,  4-31.740N,104-51.185E,67.6,29.239,33.2225,168,162
449,2004/11/16,20:50:00,  4-31.821N,104-51.371E,67.6,29.238,33.2235,174,162
450,2004/11/16,20:51:00,  4-31.903N,104-51.559E,65.3,29.239,33.2238,171,162
451,2004/11/16,20:52:00,  4-31.982N,104-51.744E,64.9,29.236,33.2257,168,162
452,2004/11/16,20:53:00,  4-32.063N,104-51.930E,65.9,29.234,33.2256,168,162
453,2004/11/16,20:54:00,  4-32.143N,104-52.118E,66.4,29.237,33.2264,169,162
454,2004/11/16,20:55:00,  4-32.225N,104-52.305E,65.6,29.24,33.2268,166,162
455,2004/11/16,20:56:00,  4-32.304N,104-52.489E,67.8,29.24,33.2273,166,162
456,2004/11/16,20:57:00,  4-32.386N,104-52.679E,66.1,29.24,33.2278,170,162
457,2004/11/16,20:58:00,  4-32.466N,104-52.865E,66.5,29.241,33.2279,165,162
458,2004/11/16,20:59:00,  4-32.546N,104-53.051E,65.5,29.244,33.2291,169,162
459,2004/11/16,21:00:01,  4-32.626N,104-53.238E,65.8,29.244,33.229,166,162
460,2004/11/16,21:01:00,  4-32.706N,104-53.425E,67.3,29.244,33.2292,164,162
461,2004/11/16,21:02:01,  4-32.789N,104-53.612E,67.3,29.244,33.2297,166,162
462,2004/11/16,21:03:00,  4-32.868N,104-53.796E,67,29.242,33.2303,165,162
463,2004/11/16,21:04:00,  4-32.948N,104-53.983E,67.3,29.241,33.2308,165,162
464,2004/11/16,21:05:00,  4-33.027N,104-54.169E,66.4,29.24,33.232,188,162
465,2004/11/16,21:06:00,  4-33.106N,104-54.354E,67.1,29.239,33.2321,166,162
466,2004/11/16,21:07:00,  4-33.185N,104-54.539E,68,29.235,33.2337,164,162
467,2004/11/16,21:08:00,  4-33.265N,104-54.724E,67.7,29.231,33.2344,199,162
468,2004/11/16,21:09:00,  4-33.345N,104-54.910E,67.1,29.23,33.2353,163,162
469,2004/11/16,21:10:00,  4-33.425N,104-55.096E,65.5,29.23,33.2364,---,162
470,2004/11/16,21:11:00,  4-33.503N,104-55.282E,65.4,29.228,33.2375,174,162
471,2004/11/16,21:12:00,  4-33.583N,104-55.469E,68.1,29.223,33.2376,169,162
472,2004/11/16,21:13:01,  4-33.663N,104-55.656E,66.7,29.219,33.2386,---,162
473,2004/11/16,21:14:00,  4-33.742N,104-55.843E,66.4,29.215,33.2377,166,162